Photometre #46[NE_1.6] Toulon AOT

File : 20221123_46.hum

23/11/2022,07:36:48,TEMP=9.7,BA=5.48,STAT.A=4.5,ExtBa=13.08
23/11/2022,07:41:14,TEMP=9.9,BA=5.48,STAT.A=4.5,ExtBa=12.98
23/11/2022,07:46:29,TEMP=10.0,BA=5.48,STAT.A=4.5,ExtBa=12.88
23/11/2022,07:52:49,TEMP=10.1,BA=5.48,STAT.A=4.5,ExtBa=12.62
23/11/2022,08:00:36,TEMP=10.2,BA=5.48,STAT.A=4.5,ExtBa=11.98
23/11/2022,08:10:25,TEMP=10.3,BA=5.52,STAT.A=4.5,ExtBa=10.87
23/11/2022,08:22:42,TEMP=10.3,BA=5.52,STAT.F,ExtBa=10.79
23/11/2022,08:37:38,TEMP=10.3,BA=5.52,STAT.D=4.5,ExtBa=10.81
23/11/2022,08:52:39,TEMP=10.5,BA=5.52,STAT.D=4.5,ExtBa=10.81
23/11/2022,09:07:39,TEMP=11.2,BA=5.56,STAT.D=4.5,ExtBa=10.80
23/11/2022,09:22:41,TEMP=12.3,BA=5.60,STAT.F,ExtBa=10.76
23/11/2022,09:37:40,TEMP=12.8,BA=5.60,STAT.D=4.5,ExtBa=10.79
23/11/2022,09:52:40,TEMP=13.3,BA=5.64,STAT.D=4.5,ExtBa=10.85
23/11/2022,10:07:40,TEMP=13.7,BA=5.64,STAT.D=4.5,ExtBa=10.83
23/11/2022,10:22:41,TEMP=13.8,BA=5.60,STAT.F,ExtBa=10.73
23/11/2022,10:37:41,TEMP=13.8,BA=5.64,STAT.D=4.5,ExtBa=10.87
23/11/2022,10:39:06,TEMP=14.0,BA=5.64,STAT.b=4.5
23/11/2022,10:52:40,TEMP=14.6,BA=5.64,STAT.D=4.5,ExtBa=11.69
23/11/2022,11:07:41,TEMP=15.0,BA=5.64,STAT.D=4.5,ExtBa=14.71
23/11/2022,11:22:41,TEMP=15.5,BA=5.64,STAT.F,ExtBa=13.92
23/11/2022,11:37:40,TEMP=17.3,BA=5.64,STAT.D=4.5,ExtBa=15.10
23/11/2022,11:52:39,TEMP=17.8,BA=5.96,STAT.D=4.5,ExtBa=14.13
23/11/2022,12:07:39,TEMP=16.9,BA=5.68,STAT.D=4.5,ExtBa=13.81
23/11/2022,12:22:41,TEMP=15.8,BA=5.64,STAT.F,ExtBa=13.72
23/11/2022,12:37:39,TEMP=15.3,BA=5.64,STAT.D=4.5,ExtBa=13.90
23/11/2022,12:52:39,TEMP=16.8,BA=5.76,STAT.D=4.5,ExtBa=14.09
23/11/2022,13:07:50,TEMP=17.1,BA=5.68,STAT.b=4.5
23/11/2022,13:22:41,TEMP=18.5,BA=5.64,STAT.F,ExtBa=14.32
23/11/2022,13:37:39,TEMP=17.7,BA=6.08,STAT.D=4.5,ExtBa=15.18
23/11/2022,13:52:39,TEMP=17.9,BA=5.76,STAT.D=4.5,ExtBa=14.26
23/11/2022,14:07:40,TEMP=18.5,BA=5.68,STAT.D=4.5,ExtBa=14.39
23/11/2022,14:22:42,TEMP=18.2,BA=5.64,STAT.F,ExtBa=14.39
23/11/2022,14:36:39,TEMP=17.7,BA=5.64,STAT.A=4.5,ExtBa=11.64
23/11/2022,14:44:45,TEMP=17.4,BA=5.64,STAT.A=4.5,ExtBa=13.94
23/11/2022,14:46:15,TEMP=17.6,BA=5.64,STAT.b=4.5
23/11/2022,14:52:48,TEMP=17.3,BA=5.64,STAT.A=4.5,ExtBa=14.20
23/11/2022,14:58:52,TEMP=17.0,BA=5.64,STAT.A=4.5,ExtBa=14.28
23/11/2022,15:04:06,TEMP=17.0,BA=5.52,STAT.A=4.5,ExtBa=14.29
23/11/2022,15:08:33,TEMP=16.8,BA=5.52,STAT.A=4.5,ExtBa=14.28